This is the latest recevied weather packets stored in our database for station/object DL9GRB-13. If no packets are shown the sender has not sent any weather packets the latest 10 day(s).
| Time | Temp. | Humidity | Pressure | Rain* | Wind** | Luminosity | Snow |
|---|---|---|---|---|---|---|---|
| 1778263989 | 12.78° C | 46% | 1020.7 hPa | 0 mm | - | 27 W/m² | - |
| 1778263809 | 12.78° C | 46% | 1020.6 hPa | 0 mm | - | 29 W/m² | - |
| 1778263629 | 12.78° C | 47% | 1020.8 hPa | 0 mm | - | 30 W/m² | - |
| 1778263449 | 12.78° C | 47% | 1020.6 hPa | 0 mm | - | 28 W/m² | - |
| 1778263269 | 12.78° C | 46% | 1020.6 hPa | 0 mm | - | 35 W/m² | - |
| 1778263089 | 12.78° C | 46% | 1020.6 hPa | 0 mm | - | 37 W/m² | - |
| 1778262909 | 12.78° C | 47% | 1020.5 hPa | 0 mm | - | 36 W/m² | - |
| 1778262729 | 12.78° C | 46% | 1020.5 hPa | 0 mm | - | 40 W/m² | - |
| 1778262549 | 13.33° C | 47% | 1020.7 hPa | 0 mm | - | 44 W/m² | - |
| 1778262369 | 13.33° C | 47% | 1020.4 hPa | 0 mm | - | 39 W/m² | - |
| 1778262189 | 13.33° C | 47% | 1020.4 hPa | 0 mm | - | 38 W/m² | - |
| 1778262009 | 13.33° C | 46% | 1020.5 hPa | 0 mm | - | 44 W/m² | - |
| 1778261829 | 13.33° C | 46% | 1020.4 hPa | 0 mm | - | 54 W/m² | - |
| 1778261649 | 13.33° C | 46% | 1020.4 hPa | 0 mm | - | 56 W/m² | - |
| 1778261469 | 13.33° C | 47% | 1020.4 hPa | 0 mm | - | 59 W/m² | - |
| 1778261289 | 13.33° C | 47% | 1020.5 hPa | 0 mm | - | 61 W/m² | - |
| 1778261109 | 13.33° C | 48% | 1020.5 hPa | 0 mm | - | 64 W/m² | - |
| 1778260929 | 13.33° C | 48% | 1020.4 hPa | 0 mm | - | 49 W/m² | - |
| 1778260749 | 13.33° C | 48% | 1020.3 hPa | 0 mm | - | 50 W/m² | - |
| 1778260569 | 13.33° C | 47% | 1020.2 hPa | 0 mm | - | 44 W/m² | - |
| 1778260389 | 13.89° C | 46% | 1020.3 hPa | 0 mm | - | 45 W/m² | - |
| 1778260209 | 13.89° C | 47% | 1020.3 hPa | 0 mm | - | 47 W/m² | - |
| 1778260029 | 14.44° C | 46% | 1020.4 hPa | 0 mm | - | 76 W/m² | - |
| 1778259849 | 14.44° C | 47% | 1020.3 hPa | 0 mm | - | 76 W/m² | - |
| 1778259669 | 14.44° C | 47% | 1020 hPa | 0 mm | - | 85 W/m² | - |
* Rain latest hour (hover to see other rain measurements)
** Current wind speed in m/s (hover to see current wind gust speed)